Hourly Data Report for December 10, 2012

BAGOTVILLE A
QUEBEC

48°20'00.000" N
71°00'00.000" W
159.10 m
7060400
71727
YBG

Download Data

Hourly Data (December 2012)
Hourly Data Report for December 10, 2012
TIME
LST
Temp Definition
°C
Dew Point Definition
°C
Rel Hum Definition
%
Precip. Amount Definition
mm

Wind Dir Definition
10's deg

Wind Spd Definition
km/h
Visibility Definition
km
Stn Press Definition
kPa
Hmdx Definition


Wind Chill Definition


Weather Definition


00:00 -12.0 -14.8 80   11 4 24.1 100.68   -15 Cloudy
01:00 -11.6 -14.3 80   13 4 24.1 100.64   -14 Cloudy
02:00 -11.8 -14.1 83     0 24.1 100.58     Cloudy
03:00 -10.8 -12.9 84   11 15 24.1 100.44   -18 Snow
04:00 -10.3 -13.2 79   11 20 24.1 100.22   -18 Snow
05:00 -10.4 -12.9 82   11 20 2.4 100.08   -18 Snow
06:00 -10.5 -12.2 87   10 28 1.2 99.96   -20 Snow
07:00 -10.3 -12.0 87   10 33 2.4 99.78   -20 Snow
08:00 -10.0 -12.4 83   11 30 2.4 99.63   -20 Snow
09:00 -10.2 -12.3 85   11 28 0.6 99.43   -19 Moderate Snow,Blowing Snow
10:00 -9.8 -12.6 80   11 32 0.6 99.28   -20 Snow,Blowing Snow
11:00 -9.4 -11.3 86   11 28 0.8 99.00   -18 Snow,Blowing Snow
12:00 -8.6 -10.4 87   12 28 0.6 98.75   -17 Snow,Blowing Snow
13:00 -8.0 -10.1 85   11 32 0.6 98.46   -17 Snow,Blowing Snow
14:00 -7.1 -8.7 88   11 26 1.6 98.27   -15 Snow,Blowing Snow
15:00 -6.7 -8.6 86   11 41 2.0 98.17   -16 Snow,Blowing Snow
16:00 -6.7 -7.9 91   10 33 1.2 98.07   -16 Snow,Blowing Snow
17:00 -6.5 -8.0 89   11 30 1.6 98.01   -15 Snow,Blowing Snow
18:00 -6.5 -7.6 92   10 32 1.2 97.93   -15 Snow,Blowing Snow
19:00 -6.0 -8.1 85   11 32 6.4 97.86   -15 Snow,Blowing Snow
20:00 -5.5 -7.8 84   11 32 16.1 97.80   -14 Cloudy
21:00 -5.0 -7.9 80   10 26 16.1 97.72   -12 Cloudy
22:00 -5.0 -6.9 86   10 11 3.2 97.80   -10 Snow
23:00 -4.9 -6.1 91   5 6 12.9 97.89   -8 Snow

Notes on Data Quality.

Legend

  • E = Estimated
  • M = Missing
  • NA = Not Available*
  • [empty] = Indicates an unobserved value
Date modified: